SL-8 R/B

Satellite information

Favourite Embed

Satellite Type and Status

ROCKET BODYIN ORBIT

Key statistics

Satellite SL-8 R/B at a glance.

Uptime

16176

Days in orbit

Revolutions

≈ 13.9

Per day

Orbit

LEO

Low Earth Orbit

Inclination

82.9

Latest

Satellite identification and parameters

Extended collection of information and parameters for SL-8 R/B.

Object identification

Identified? True

Debris? False

Object name: SL-8 R/B

International designator: 1981-087B

Object number (NORAD): 12804

Object ID (CCSDS): 12804

Country: COMMONWEALTH OF INDEPENDENT STATES (CIS)

Current information (Y/N): Y

RCS size: LARGE

Orbital parameters

Period: 103.616 minutes

Inclination: 82.9289 deg

SMA: 7307.648 km

Apoapsis: 959.598 km

Periapsis: 899.428 km

RAAN: 143.0576 deg

Eccentricy: 0.0041169

Argument of periapsis: 271.6693 deg

Mean anomaly: 199.7592 deg

Mean motion: 13.89748849 rev/day

Mean motion (dot): 0.00000033 rev/day2

B* drag term: 0.000013949872 1/REarth

Two-line elements (TLE)

Creation date: Dec. 17, 2025, 2:25 a.m.

Reference frame: TEME

Reference center: EARTH

Epoch: Dec. 16, 2025, 10:09 p.m. UTC

TLE line 0: 0 SL-8 R/B

TLE line 1: 1 12804U 81087B 25350.92292166 .00000033 00000-0 13950-4 0 9999

TLE line 2: 2 12804 82.9289 143.0576 0041169 271.6693 199.7592 13.89748849244245

Live tracking on map

Real-time ground track for satellite SL-8 R/B.

In-orbit conjunctions

A list of the most updated potential collisions computed for object SL-8 R/B.

Target Orbit TCA Probability of collision Miss distance Type
FENGYUN 1C DEB SSO 2025-04-29 04:41:53 0.0002257658 732.0 (m) DEBRIS
FENGYUN 1C DEB SSO 2025-04-12 15:17:47 0.0007134704 130.0 (m) DEBRIS

Associated space launch

Civilian navigation satellite equivalent to the purely military Parus

SL-8 R/B was lifted into orbit during the mission ‘Kosmos-3M | Tsikada 8’, on board a Kosmos-3M space rocket.

The launch took place on Sept. 4, 1981, 11:06 a.m. from 132/1 (132L).

For more information about the launch, click the button.

Launch to space Kosmos-3M | Tsikada 8
Kosmos-3M | Tsikada 8

Agency: N/A

Status: Launch Successful

Launch date: Sept. 4, 1981, 11:06 a.m. UTC

Rocket: Kosmos-3M

Launch pad: 132/1 (132L)

Location: Plesetsk Cosmodrome, Russian Federation

...

Latest news about this satellite

There are no fresh news available about this satellite. Check back as we update our databases every day.


Newsletter sign-up

Weekly statistics, charts and insights to help you stay on top of the space industry.